Regional Weather Roundup
Issued by NWS

Home | Current Version | Previous Version | Text Only | Print | Product List | Glossary On
Versions: 1 2 3 4 5 6 7 8 9 10 11 12 13 14 15 16 17 18 19 20 21 22 23 24 25 26 27 28 29 30 31 32 33 34 35 36 37 38 39 40 41 42 43 44 45 46 47 48 49 50
000
ASUS44 KLUB 020210
RWRTX
WEST TEXAS WEATHER ROUNDUP
NATIONAL WEATHER SERVICE LUBBOCK TX
900 PM CDT MON SEP 01 2014

NOTE: "FAIR" INDICATES FEW OR NO CLOUDS BELOW 12,000 FEET WITH NO
SIGNIFICANT WEATHER AND/OR OBSTRUCTIONS TO VISIBILITY.

TXZ004-006>008-010-012-014-016-OKZ002-020300-
TEXAS PANHANDLE/OKLAHOMA PANHANDLE

CITY           SKY/WX    TMP DP  RH WIND       PRES   REMARKS
AMARILLO       CLEAR     82  59  45 NE10      29.91R
BORGER         CLEAR     83  63  50 NE9       29.89R
CANADIAN       CLEAR     80  69  68 N3        29.85R
DALHART        CLEAR     77  60  55 E10       29.93S
DUMAS          CLEAR     78  61  56 E10       29.93R
GUYMON         CLEAR     79  64  60 E8        29.90R
HEREFORD       CLEAR     82  55  38 E7        29.91R
PAMPA          CLEAR     75  62  63 NE8       29.92R
PERRYTON       CLEAR     76  65  67 E3        29.90S
$$

TXZ026-029-035-045-048-020300-
SOUTHERN PANHANDLE/SOUTH PLAINS/ROLLING PLAINS

CITY           SKY/WX    TMP DP  RH WIND       PRES   REMARKS
CHILDRESS      CLEAR     93  64  38 SE12      29.79R
SEMINOLE       CLEAR     90  41  18 SW5       29.88R
LUBBOCK        PTCLDY    92  52  25 S12       29.86R
PLAINVIEW      CLEAR     85  52  31 CALM      29.87R
SNYDER         CLEAR     93  62  36 SE17      29.85R
$$

TXZ052-054-060>062-072-078-127-140-154-169-020300-
PERMIAN BASIN/CONCHO VALLEY/BIG COUNTRY/EDWARDS PLATEAU

CITY           SKY/WX    TMP DP  RH WIND       PRES   REMARKS
ABILENE        CLEAR     91  59  33 SE13      29.86R
BIG SPRING     CLEAR     94  60  31 SE17G25   29.87R
BRADY          CLEAR     88  63  42 SE8       29.90R
BROWNWOOD      PTCLDY    90  63  40 SE10      29.87R
JUNCTION       CLEAR     89  62  40 SE8       29.89R
MIDLAND        CLEAR     94  59  31 S17       29.85R
ODESSA         CLEAR     94  58  29 S16       29.87R
SAN ANGELO     CLEAR     91  61  36 S12       29.86R
SONORA         CLEAR     88  61  40 SE7       29.94R
SWEETWATER     CLEAR     90  58  33 SE13      29.89R
WINK           CLEAR     96  56  26 SE10      29.82R
$$

TXZ055-058-074-075-080-082-020300-
FAR WEST/SOUTHWEST MOUNTAINS/TRANS PECOS

CITY           SKY/WX    TMP DP  RH WIND       PRES   REMARKS
ALPINE         MOCLDY    84  45  25 SE9       30.04S
DRYDEN           N/A     96  58  27 E13       29.85R HX  95
EL PASO        PTCLDY    93  33  12 W12       29.93R
FORT STOCKTON  CLEAR     91  59  33 SE16G24   29.88R
GUADALUPE PASS CLEAR     84  37  18 SW7G18    30.09R
MARFA          MOCLDY    86  45  23 S5        30.05R
PECOS          CLEAR     93  53  25 SE16      29.81R
PRESIDIO       FAIR      98  49  19 CALM      29.83R
$$

TXZ014-016-019-021>030-083-020300
TEXAS TECH WEST TEXAS MESONET/TEXAS PANHANDLE/NORTHERN SOUTH PLAINS

CITY           SKY/WX    TMP DP  RH WIND       PRES   REMARKS
ABERNATHY 5ENE   N/A     81  50  34 S5        29.87R
AMARILLO 9NNE    N/A     80  61  52 NE8       29.89R
AMARILLO 7SSE    N/A     82  56  42 E7        29.92R
AMHERST 1NE      N/A     85  49  28 NE3       29.90R
BOOTLEG 11WNW    N/A     80  41  25 SW7       29.97R
CANADIAN 6E      N/A     78  67  69 N9        29.85R
CAPROCK CYN SP   N/A     90  61  37 S8        29.82R
CHILDRESS 2NNE   N/A     92  62  37 SE13      29.78R
CLARENDON 2WSW   N/A     86  63  45 E5        29.86R
CLAUDE 12SW      N/A     81  61  50 NE9       29.90R
DIMMITT 2NE      N/A     84  47  27 SE7       29.92R
FLOYDADA 2NNE    N/A     82  55  38 S8        29.86R
FRIONA 2NE       N/A     81  50  33 S6        29.93R
GOODLETT 3W      N/A     93  58  30 SE12      29.76R
HART 3N          N/A     78  62  59 E3        29.90R
HEREFORD 2NW     N/A     86  48  26 E3        29.91R
MCLEAN 1E        N/A     83  63  51 N8        29.87R
MEMPHIS 1NE      N/A     88  66  47 E3        29.79R
MULESHOE 2SSW    N/A     83  48  30 E5        29.91R
OLTON 6S         N/A     82  56  41 NE6       29.89R
PALO DURO SP     N/A     85  55  35 E2        29.91R
PAMPA 2E         N/A     76  65  67 N7        29.91R
PLAINVIEW 1S     N/A     90  50  25 N2        29.87R
SILVERTON 7ESE   N/A     86  53  32 S5        29.87R
TULIA 2ENE       N/A     82  47  29 SE3       29.88S
TURKEY 2WSW      N/A     90  62  38 SE9       29.80R
UMBARGER 3NNE    N/A     83  55  36 E7        29.92R
$$

TXZ033>036-039>041-045>048-020300
TEXAS TECH WEST TEXAS MESONET/SOUTH PLAINS

CITY           SKY/WX    TMP DP  RH WIND       PRES   REMARKS
AIKEN 3WSW       N/A     79  63  57 W1        29.89R
ANDREWS 2NE      N/A     92  36  13 S7        29.87R
ANTON 6SSW       N/A     84  46  26 S9        29.87R
BROWNFIELD 2S    N/A     88  43  20 SE8       29.88R
DENVR CTY 7WNW   N/A     83  48  29 S8        29.90R
GAIL 2ESE        N/A     93  56  28 SE10      29.82R
LAMESA 2SE       N/A     89  53  28 SE9       29.86R
LEVELLAND 4S     N/A     79  47  32 S5        29.88R
LUBBOCK 3WNW     N/A     90  49  24 S8        29.87R
MORTON 1ENE      N/A     84  48  28 SE6       29.90R
ODONNELL 1N      N/A     91  48  23 SE6       29.86R
PLAINS 3N        N/A     86  40  19 S8        29.91R
RALLS 1SE        N/A     87  53  31 S8        29.87R
REESE CENTER     N/A     86  44  23 S9        29.87R
SEAGRAVES 1SW    N/A     88  43  20 SW2       29.87R
SEMINOLE 2NNE    N/A     93  37  14 SW3       29.87R
SLATON 2NE       N/A     86  51  30 S10       29.86R
SNYDER 3E        N/A     91  59  34 SE18      29.83R
SUNDOWN 8SW      N/A     83  42  23 S8        29.89R
TAHOKA 3NNE      N/A     86  53  32 SE7       29.86R
WOLFFORTH 6SSW   N/A     90  53  28 S10       29.88R
$$

TXZ031-032-036>038-042>044-020300-
TEXAS TECH WEST TEXAS MESONET/ROLLING PLAINS

CITY           SKY/WX    TMP DP  RH WIND       PRES   REMARKS
ASPERMONT 3NE    N/A     94  59  31 SE8       29.80R
FLUVANNA 3WNW    N/A     92  57  30 SE15      29.84R
GRAHAM 5SSW      N/A     92  51  24 S12       29.85R
GUTHRIE 10WSW    N/A     91  61  36 SE14      29.79R
HASKELL 1NW      N/A     92  55  29 SE9       29.81R
JAYTON 1SSE      N/A     93  58  31 SE14      29.80R
KNOX CITY 3NW    N/A     92  57  31 SE16      29.79R
LK A HENRY 1NW   N/A     94  61  33 S10       29.81R
NORTHFIELD 1S    N/A     89  65  44 SE13      29.78R
ODELL 4ENE       N/A     92  59  33 SE16      29.78R
PADUCAH 10SW     N/A     91  61  36 SE12      29.79R
POST 1NE         N/A     93  51  24 SE9       29.82R
RRING SPRGS 3N   N/A     89  62  41 SE9       29.82R
SEYMOUR 3NW      N/A     92  57  31 SE14      29.79R
SPUR 1W          N/A     92  57  31 SE10      29.80R
WEINERT 2NNE     N/A     92  63  38 SE16      29.80R
WHITE RVR 6NE    N/A     91  58  32 SE8       29.83R
$$

TXZ052-054-060>062-072-078-127-140-154-169-020300-
TEXAS TECH WEST TEXAS MESONET/PERMIAN BASIN/
CONCHO VALLEY/BIG COUNTRY/EDWARDS PLATEAU

CITY           SKY/WX    TMP DP  RH WIND       PRES   REMARKS
JUNCTION 1SSW    N/A     87  64  45 SE3       29.90R
MERTZON 3NNE     N/A     89  62  40 S9        29.89R
SAN ANGELO 7NW   N/A     91  59  34 SE12      29.87R
STRLNG CT 4WSW   N/A     91  62  37 SE13      29.88R
ST LAWRNCE 5SW   N/A     89  57  33 SE16      29.88R
SWEETWATR 11SW   N/A     90  62  38 SE13      29.89R
WALL 1E          N/A     87  59  39 SE8       29.87R
$$

TXZ055-058-074-075-080-082-020300-
TEXAS TECH WEST TEXAS MESONET/FAR WEST/SOUTHWEST MOUNTAINS/TRANS PECOS

CITY           SKY/WX    TMP DP  RH WIND       PRES   REMARKS
PRSMN GAP BBNP   N/A     95  58  28 NE6       29.85R
GUADLPE MTN NP   N/A     82  35  18 W13       30.10R
$$



USA.gov is the U.S. government's official web portal to all federal, state and local government web resources and services.